This is the latest recevied weather packets stored in our database for station/object XE2OR-10. If no packets are shown the sender has not sent any weather packets the latest 10 day(s).
| Time | Temp. | Humidity | Pressure | Rain* | Wind** | Luminosity | Snow |
|---|---|---|---|---|---|---|---|
| 1777158229 | 31.67° C | 73% | 995.1 hPa | 0 mm | - | 302 W/m² | - |
| 1777157929 | 31.11° C | 73% | 995 hPa | 0 mm | - | 272 W/m² | - |
| 1777157632 | 31.11° C | 74% | 994.8 hPa | 0 mm | - | 89 W/m² | - |
| 1777157329 | 31.11° C | 73% | 994.8 hPa | 0 mm | - | 74 W/m² | - |
| 1777157032 | 31.11° C | 73% | 994.7 hPa | 0 mm | - | 59 W/m² | - |
| 1777156729 | 31.11° C | 73% | 994.6 hPa | 0 mm | - | 53 W/m² | - |
| 1777156429 | 31.11° C | 73% | 994.7 hPa | 0 mm | - | 51 W/m² | - |
| 1777156129 | 31.11° C | 73% | 994.7 hPa | 0 mm | - | 51 W/m² | - |
| 1777155833 | 31.11° C | 73% | 994.7 hPa | 0 mm | - | 51 W/m² | - |
| 1777155529 | 31.11° C | 72% | 994.8 hPa | 0 mm | - | 45 W/m² | - |
| 1777155233 | 31.11° C | 72% | 994.7 hPa | 0 mm | - | 45 W/m² | - |
| 1777154929 | 31.67° C | 72% | 994.7 hPa | 0 mm | - | 43 W/m² | - |
| 1777154629 | 31.67° C | 72% | 994.7 hPa | 0 mm | - | 42 W/m² | - |
| 1777154329 | 31.67° C | 72% | 994.7 hPa | 0 mm | - | 44 W/m² | - |
| 1777154033 | 31.67° C | 72% | 994.7 hPa | 0 mm | - | 47 W/m² | - |
| 1777153729 | 31.67° C | 71% | 994.8 hPa | 0 mm | - | 54 W/m² | - |
| 1777153433 | 32.22° C | 72% | 994.7 hPa | 0 mm | - | 69 W/m² | - |
| 1777153129 | 32.22° C | 71% | 994.8 hPa | 0 mm | - | 68 W/m² | - |
| 1777152829 | 32.22° C | 71% | 994.7 hPa | 0 mm | - | 76 W/m² | - |
| 1777152530 | 32.22° C | 71% | 995.2 hPa | 0 mm | - | 107 W/m² | - |
| 1777152233 | 32.78° C | 70% | 995.2 hPa | 0 mm | - | 149 W/m² | - |
| 1777151929 | 33.33° C | 69% | 995.3 hPa | 0 mm | - | 276 W/m² | - |
| 1777151633 | 33.89° C | 69% | 995.4 hPa | 0 mm | - | 221 W/m² | - |
| 1777151329 | 33.89° C | 68% | 995.3 hPa | 0 mm | - | 645 W/m² | - |
| 1777151029 | 34.44° C | 67% | 995.5 hPa | 0 mm | - | 661 W/m² | - |
* Rain latest hour (hover to see other rain measurements)
** Current wind speed in m/s (hover to see current wind gust speed)